Starlink 3240

operational
NORAD ID: 49728 Int'l Des: 2021-115 Owner: SPXS Country: US Constellation: starlink
LEOCIRCULAR

Starlink 3240について

説明を読み込み中...

リアルタイム位置

3D地球を読み込み中...

次回通過

高度履歴

Altitude vs Time

uPlot chart will show altitude changes over time

軌道要素

1 49728U 21115E 25257.23641725 .00000101 00000-0 24417-4 0 9995
2 49728 53.2152 231.2510 0001457 86.6381 273.4778 15.08836549208752
Epoch: Sep 14, 2025 • Age: 39 hours

現在のステータス

高度 539.8 km
速度 7.60 km/s
衛星直下点 20.44°N, 85.21°E
打ち上げ日 Dec 2, 2021
運用期間 3.7 years
タイプ internet

技術仕様

分類 Payload
質量 290.00 kg
乾燥質量 270.00 kg
総質量 290.00 kg
長さ 0.20 m
直径 2.80 m
スパン 9.00 m
形状 Box + pan
製造者 SPXS
バスタイプ Starlink
フェーズステータス In Orbit
所有者/国 SPXS/US

大規模コンステレーション

Loading constellations...